RH
13 14 13 10 10 9 10 8 9 8 7 10 20 26 29 23 22 22 25 28 30 32 36 42 46 47 49 57 63 51 72 63 76 67 80 75 74 72 69 68 71 76 81 81
11 12 10 9 9 8 8 8 9 8 8 8 20 28 29 30 28 28 28 26 26 28 32 38 45 47 49 54 68 61 55 59 53 50 62 72 70 72 78 75 77 82 81 86
11 8 9 9 7 8 9 8 8 9 8 7 10 28 28 29 31 33 33 30 27 27 28 34 41 45 51 52 62 75 69 57 56 72 75 67 75 78 84 82 82 86 90 90
8 8 9 8 8 7 8 7 7 8 10 12 8 40 30 28 31 34 36 34 28 28 28 30 36 44 47 52 59 70 83 89 62 58 75 85 76 79 75 78 77 81 83 88
8 8 9 9 7 6 7 7 8 8 9 9 8 34 30 27 33 33 37 40 36 31 29 24 29 36 43 49 55 64 78 91 90 71 67 82 84 82 81 74 74 74 77 92
6 5 6 6 6 6 6 8 8 8 8 10 10 17 65 34 35 32 35 43 44 41 35 35 30 30 38 46 55 59 72 88 96 94 86 78 84 82 84 69 73 72 74 76
5 6 5 5 7 6 7 9 12 13 8 13 12 37 76 30 31 31 32 40 46 47 48 40 36 34 38 42 51 60 67 86 96 99 96 96 91 80 77 78 80 77 76 72
6 8 6 6 8 9 9 8 11 14 12 14 11 26 34 27 30 32 33 37 44 50 55 57 57 53 52 49 52 60 65 79 89 97 96 97 97 96 79 86 77 85 80 78
9 14 9 9 8 8 10 11 8 8 9 11 33 33 28 27 28 31 34 36 39 46 56 61 63 63 61 59 60 64 69 75 84 85 91 95 99 96 87 82 82 82 82 83
9 15 10 9 8 8 9 9 15 34 27 16 22 28 27 33 32 31 34 36 39 41 44 51 62 71 74 82 73 71 73 75 81 82 82 88 96 96 96 89 86 84 85 84
7 9 14 10 11 30 16 11 19 15 18 26 27 64 33 35 31 31 32 36 40 41 43 46 52 61 73 82 93 88 86 88 87 86 85 82 80 82 89 91 89 85 88 89
8 8 11 12 11 10 10 14 24 16 44 61 27 46 29 29 28 30 34 36 38 39 40 42 50 59 61 75 86 92 97 94 94 92 93 91 93 88 86 90 87 88 90 90
9 10 14 13 12 11 12 11 12 11 11 17 17 45 28 31 32 33 32 34 37 37 41 42 43 53 62 70 77 83 86 82 77 78 95 87 93 96 95 94 98 96 96 94
16 11 13 36 38 48 29 15 14 15 15 15 22 35 36 32 31 30 31 33 34 37 40 43 46 52 60 64 73 79 81 84 90 89 93 98 94 81 94 98 95 89 88 94
13 15 16 20 28 31 16 16 17 18 16 19 16 17 25 32 30 28 29 31 33 35 39 45 49 52 56 61 71 74 76 79 83 84 88 88 97 95 83 76 65 61 54 51
12 18 18 20 16 16 17 15 17 17 17 17 17 18 26 32 29 27 28 31 33 37 41 47 48 50 53 59 66 72 76 76 82 86 84 89 93 99 98 89 70 59 54 51
16 16 21 23 16 19 21 17 16 18 19 19 16 25 26 26 27 29 32 32 39 42 44 49 55 59 64 68 70 71 73 77 83 88 85 83 85 88 93 99 99 96 88 95
16 20 19 21 20 32 18 19 18 19 15 15 18 25 26 28 32 31 32 41 42 44 49 54 59 62 68 72 72 81 83 81 80 85 87 85 87 90 87 87 92 94 96 94
12 15 21 24 22 19 19 20 17 18 17 15 18 21 25 30 31 37 38 41 44 46 56 62 66 68 70 72 78 87 86 79 87 78 83 87 92 94 93 92 92 89 92 89
14 14 20 22 26 27 23 18 18 16 18 17 22 24 27 29 26 32 36 43 46 55 64 72 70 68 70 80 83 88 96 91 85 91 91 93 96 92 98 92 90 87 89 85
19 20 20 22 23 19 22 23 21 22 36 28 26 30 31 33 36 37 38 48 47 47 51 59 64 68 74 91 96 96 99 99 97 91 89 89 87 91 96 91 84 86 82 80
22 22 18 18 21 24 25 25 23 38 33 32 35 37 38 40 36 37 46 48 45 45 54 68 72 78 86 94 99 100 99 99 98 98 97 99 98 96 95 90 85 78 70 67
22 20 30 25 33 30 27 29 31 30 34 37 38 38 42 38 38 45 48 43 41 49 63 73 84 92 96 100 99 98 100 96 92 90 91 95 98 98 89 92 90 90 75 70
21 25 21 24 27 27 28 33 33 36 34 42 42 42 38 39 43 47 41 40 47 62 74 87 94 98 100 99 98 98 96 97 98 98 97 96 98 98 88 90 79 79 66 62
27 28 22 25 32 33 30 35 37 42 45 46 49 45 45 48 47 43 42 49 63 75 79 91 99 99 98 100 100 100 100 100 98 98 98 97 98 97 94 85 76 70 65 61
17 23 23 23 30 34 32 37 41 47 50 51 46 43 51 45 43 44 47 60 74 80 80 97 99 98 98 96 97 100 100 100 100 99 92 97 94 98 96 94 94 86 76 66
Wind_Speed
17 13 13 11 12 8 3 5 6 2 7 1 9 10 11 10 9 4 8 11 15 15 16 16 17 17 18 17 17 21 19 18 18 16 12 10 11 9 9 9 11 11 11 10
13 11 13 9 3 7 8 8 5 2 4 7 9 10 13 11 10 6 3 4 10 14 16 18 19 20 19 20 20 20 22 21 20 19 18 14 11 12 12 12 13 11 13 11
17 9 5 2 7 9 13 11 9 6 5 7 9 10 12 16 13 9 7 1 7 9 12 19 20 22 24 22 23 22 22 23 21 18 15 18 15 15 13 13 15 13 13 12
13 9 5 9 11 9 14 8 1 6 11 8 13 5 9 14 15 14 14 9 3 4 11 15 21 21 23 23 22 22 23 23 23 23 20 19 17 17 16 14 14 17 13 14
12 11 7 12 12 7 12 6 8 6 10 10 13 14 13 13 15 14 16 15 13 7 3 10 16 19 19 19 21 21 22 24 24 24 25 22 19 17 16 15 16 15 14 15
14 5 6 14 12 7 10 10 15 16 10 12 9 2 17 13 12 14 17 18 18 15 11 2 6 12 15 17 18 18 21 24 23 25 24 28 23 22 23 21 18 19 16 15
14 13 14 12 13 12 14 16 13 12 7 3 2 14 12 3 10 13 16 18 19 21 18 16 7 2 7 12 14 15 17 19 20 23 25 25 28 27 23 21 19 19 16 16
12 15 13 12 15 14 11 17 11 6 5 4 6 10 10 12 12 14 16 18 19 21 20 17 13 9 2 4 10 13 14 16 17 20 23 25 24 23 24 22 24 21 21 18
8 9 5 6 12 11 8 11 9 14 11 11 7 14 18 14 11 12 14 16 18 19 18 19 16 12 10 4 3 8 11 12 15 17 20 23 24 24 23 22 23 21 20 22
3 7 11 9 10 12 14 4 2 7 7 12 1 14 11 16 12 10 11 13 14 15 17 17 16 14 11 12 7 2 5 10 11 14 18 18 21 22 23 25 25 23 22 22
12 12 3 10 14 9 18 10 8 12 7 4 6 4 12 11 10 11 11 11 12 12 13 13 14 14 13 11 9 3 1 4 9 15 17 19 20 19 21 23 24 25 23 25
14 11 11 9 5 3 10 3 15 8 7 8 17 5 11 10 10 12 10 8 8 9 9 10 11 12 13 13 10 8 8 10 9 11 11 15 16 20 22 21 23 24 26 25
5 10 13 9 14 7 11 11 8 14 10 9 10 9 10 11 10 7 7 6 6 6 8 9 10 11 12 12 12 13 11 13 15 12 15 15 17 20 20 21 20 21 21 22
6 16 17 1 8 8 18 6 7 10 11 12 6 14 12 10 7 6 4 3 3 4 6 8 10 11 11 12 13 13 13 14 15 17 14 15 16 17 14 17 19 14 17 20
8 16 12 13 26 21 16 9 3 11 12 11 16 13 12 11 6 5 1 3 6 9 9 10 13 14 15 15 15 14 14 14 14 14 15 13 14 14 16 21 25 27 25 23
12 12 5 11 5 10 11 9 8 11 9 10 7 11 14 11 4 3 2 5 10 11 12 13 15 17 17 17 18 18 18 17 17 16 16 16 16 15 14 14 17 20 20 21
7 10 5 12 7 7 11 11 12 8 3 9 10 12 10 9 5 2 6 10 10 11 13 16 18 19 19 19 20 21 21 21 20 18 16 17 18 17 16 15 15 16 17 18
7 8 10 12 6 12 2 6 6 6 4 4 1 4 4 5 3 6 8 5 8 13 16 18 19 19 19 21 21 21 21 21 21 21 19 18 17 17 18 18 18 18 18 17
11 11 12 12 14 14 12 8 4 3 8 8 5 6 3 1 5 8 5 7 12 15 17 16 17 18 20 19 19 22 23 21 18 21 21 21 19 17 18 19 18 19 20 18
15 12 11 12 12 15 9 12 8 5 10 10 4 3 1 4 7 11 8 10 13 14 16 17 17 18 18 18 18 20 20 21 19 23 21 24 21 21 21 21 20 19 19 19
7 9 13 12 13 6 9 9 7 5 5 8 6 2 3 4 7 11 12 12 13 14 16 17 17 18 18 19 19 21 21 21 22 26 28 27 26 25 26 24 22 20 19 20
8 7 10 10 14 12 14 8 3 7 9 6 2 1 2 4 7 9 10 12 13 15 16 16 17 17 19 19 18 21 22 22 24 25 26 26 28 26 23 27 24 22 21 21
8 4 6 7 6 9 12 4 7 7 6 3 1 1 2 5 6 8 10 11 13 14 15 16 16 19 19 18 19 19 21 24 24 26 27 27 27 24 23 25 25 21 19 21
6 4 5 2 7 7 9 5 7 4 3 3 2 0 3 4 5 7 8 10 12 13 14 15 17 17 19 17 17 19 20 21 22 24 24 25 25 22 18 20 22 21 23 27
7 5 6 5 5 4 8 7 7 5 5 5 2 0 1 3 4 6 8 9 11 12 12 13 15 16 17 19 20 19 20 21 23 23 23 24 19 20 20 19 19 22 25 25
10 7 7 5 8 5 1 12 10 9 7 4 2 2 1 2 3 5 6 8 10 12 14 13 14 16 18 20 20 20 21 21 21 23 21 21 20 19 19 19 20 19 23 26
Wind_Direction
203 230 230 244 34 356 338 316 284 40 99 159 65 60 51 46 30 136 181 197 194 199 188 187 191 193 193 197 212 207 198 216 205 217 206 213 224 217 225 224 222 227 228 227
227 224 265 40 306 264 265 260 251 116 90 265 109 88 84 67 63 60 342 269 216 202 198 192 196 197 202 202 206 212 212 219 223 221 210 209 223 241 220 224 237 226 226 235
236 211 72 238 221 235 234 254 23 331 320 240 172 115 108 92 74 61 63 244 244 249 216 195 201 203 205 207 209 213 217 220 227 204 224 218 216 219 231 225 230 241 236 234
219 204 195 223 243 262 280 56 268 255 268 219 223 78 99 89 78 61 47 46 63 224 224 230 197 205 209 212 212 212 213 214 225 218 207 221 219 226 226 236 232 237 241 235
211 232 222 237 245 271 281 11 295 268 265 273 217 173 121 82 69 58 49 44 43 50 221 214 214 201 210 210 214 216 218 217 212 231 212 225 225 236 223 232 235 226 244 227
267 203 241 231 233 241 273 274 255 236 230 235 207 133 340 45 46 60 55 49 46 44 58 156 212 211 200 210 212 216 218 223 223 218 228 213 226 229 230 224 229 229 235 236
215 226 211 227 248 232 231 251 249 227 192 188 282 88 183 120 70 56 58 51 48 54 50 60 87 134 214 214 214 219 221 225 224 224 225 230 227 233 241 230 232 231 237 237
207 186 198 192 231 267 211 264 277 242 243 90 194 137 123 116 99 77 64 59 53 52 56 55 50 57 66 231 227 225 229 231 230 229 231 232 237 238 240 242 241 242 237 239
216 127 152 234 220 246 231 249 352 310 206 230 58 129 141 124 102 85 76 65 58 54 48 50 48 48 44 27 250 234 234 237 236 236 239 237 236 237 233 237 247 246 242 246
304 148 188 156 219 232 279 340 18 358 333 273 344 180 133 153 124 105 81 69 61 54 48 44 41 40 35 17 63 327 257 251 245 243 241 246 244 242 241 242 234 237 246 244
265 257 131 171 222 115 267 239 342 195 237 247 173 69 19 112 125 113 95 71 59 48 44 38 35 31 29 26 18 11 284 242 220 227 235 245 244 246 248 247 250 249 241 239
232 282 217 208 63 245 292 171 199 294 81 327 287 110 148 128 122 110 103 78 55 49 36 32 27 20 20 17 10 1 339 338 280 273 258 251 247 242 244 255 253 254 251 247
238 241 262 222 185 201 252 244 279 316 298 244 299 121 136 139 136 102 89 74 69 33 24 15 9 5 3 360 1 353 324 313 318 304 310 283 260 258 250 251 254 254 257 255
300 264 269 153 7 16 299 260 265 300 299 326 94 156 162 162 143 118 85 57 22 5 356 352 345 344 339 338 338 338 337 336 333 334 312 299 292 271 268 264 254 263 277 272
255 265 325 140 179 191 265 303 274 290 305 308 324 335 156 144 136 93 120 31 348 337 326 332 331 327 323 321 320 320 318 319 321 315 309 304 294 287 271 268 266 275 283 285
236 265 220 288 280 282 279 266 286 290 298 287 284 288 95 100 123 214 297 340 332 333 328 327 324 321 319 315 313 309 308 307 307 307 299 296 298 285 285 280 273 273 276 273
273 273 230 271 255 265 264 279 238 270 349 305 292 73 108 148 181 338 328 329 341 339 327 320 317 316 313 311 309 306 303 300 298 296 298 294 292 285 280 280 277 279 283 283
239 259 275 268 268 253 338 33 3 307 308 257 303 121 67 34 10 316 323 10 340 328 322 317 315 313 311 308 307 301 296 294 294 292 289 288 288 292 288 283 284 288 286 285
265 256 259 253 259 263 189 182 194 248 278 188 241 127 181 150 297 98 67 346 332 328 323 319 315 313 312 311 307 310 295 283 295 291 287 281 280 283 288 285 280 281 281 280
271 237 255 246 251 271 90 91 94 66 264 150 176 166 281 314 278 106 2 343 335 331 325 321 318 314 310 306 308 308 308 299 286 291 290 285 282 279 282 281 276 275 284 284
236 247 236 234 250 233 110 129 133 250 78 114 125 102 302 306 336 323 330 331 329 328 327 320 317 315 313 311 308 303 303 301 295 290 286 281 274 272 279 277 278 277 282 286
238 220 234 240 252 224 137 150 261 95 127 121 113 80 307 314 313 314 321 323 325 325 326 326 322 318 310 305 304 305 303 305 301 301 300 297 288 281 275 273 271 271 276 289
253 321 343 12 53 111 150 57 124 153 158 158 157 104 317 308 310 319 317 323 327 330 329 330 322 318 315 311 313 305 306 306 306 305 302 301 303 287 270 273 270 272 274 279
204 276 265 331 115 150 167 131 152 151 149 141 143 263 305 306 311 317 323 327 329 328 330 329 329 322 321 324 319 311 318 317 310 308 307 305 304 298 282 271 267 265 262 267
33 134 243 252 179 184 194 192 179 161 158 160 159 199 303 310 320 324 327 331 330 329 328 327 326 326 325 325 325 320 317 319 317 311 312 313 311 297 294 276 270 260 259 269
232 239 235 274 114 202 318 198 194 183 184 181 193 205 334 346 341 338 333 330 332 329 326 328 331 331 329 333 335 333 329 328 322 317 312 317 315 304 299 293 289 274 265 266